Retour au catalogue

KOWSAR

ActifScienceSSO
NORAD 61769·PAYLOAD·🇮🇷 Iran
Ce nom de satellite n'a pas encore été confirmé par des sources officielles.

Lancé Nov 4, 2024 depuis Vostochny Cosmodrome

Loading…

Prochains Passages (prochaines 24 heures)

TLE

FraisSource: Space-Track

Époque: Sep 14, 2026, 14:39 UTC

1 61769U 24199AL  26257.61044323  .00035223  00000-0  44056-3 0  9996
2 61769  97.2757 135.5060 0002201 346.0027  14.1168 15.59739451148334

Suivez KOWSAR en temps réel avec AllMySat

Download on the App Store